Content
SEND FEEDBACK

Daily
Averages
Monthly
Summary
Canada

VANCOUVER, BRITISH COLUMBIA


Home > North America > Canada > British Columbia
Elevation: 7 feet     Latitude: 49 11N     Longitude: 123 10W

WEATHER
 
SELECT A DAY
Number of Records: 249,213;   Date Range: 5/15/97 - 4/23/14
 
SHARE

PRINT THIS DATA

[ ← Previous Day ]
WEATHER ALMANAC - MARCH 26, 2013
[ Next Day → ]
[ °C ]   °F
Weather ElementAverageHighLow
Temperature43.7 °F50 °F (2:55 pm)37.4 °F (12:35 am)
Dewpoint38.2 °F42.8 °F (1:35 pm)35.6 °F (12:35 am)
Humidity81.7 %100 % (6:55 am)62 % (3:35 pm)
Barometer29.99 in30.02 in (11:35 am)29.97 in (12:35 am)
Wind Speed1 mph5.8 mph (12:55 pm)
Weather ElementAverage
Visibility9.5 mi
Wind DirectionENE (60.6 °)

Weather ElementTotal
Precipitation---
Heating Degree Days21.3 (Base 65)
Averaged from 67 records on March 26, 2013
WEATHER CONDITIONS BREAKOUT
WIND DIRECTION BREAKOUT
WEATHER BY HOUR - MARCH 26, 2013
[ °C ]   °F
Local TimeTemperatureDewpointHumidityBarometerVisibilityWind DirectionWind SpeedGust SpeedPrecipitationEventsConditions
12:35 AM37.4 °F35.6 °F93 %29.97 in10.0 miCalmClear
12:55 AM37.4 °F35.6 °F93 %29.98 in10.0 miCalmClear
1:15 AM37.4 °F35.6 °F93 %29.97 in10.0 miCalmClear
1:35 AM37.4 °F35.6 °F93 %29.98 in10.0 miCalmClear
1:55 AM37.4 °F35.6 °F93 %29.97 in10.0 miCalmClear
2:15 AM37.4 °F35.6 °F93 %29.98 in10.0 miCalmClear
2:35 AM37.4 °F35.6 °F93 %29.98 in10.0 miCalmClear
2:55 AM37.4 °F35.6 °F93 %29.98 in10.0 miCalmClear
3:15 AM37.4 °F35.6 °F93 %29.98 in10.0 miCalmClear
3:35 AM37.4 °F35.6 °F93 %29.98 in10.0 miCalmClear
3:55 AM37.4 °F35.6 °F93 %29.98 in10.0 miCalmClear
4:15 AM39.2 °F37.4 °F93 %29.97 in10.0 miSouth (190°)3.5 mphClear
4:35 AM39.2 °F37.4 °F93 %29.97 in10.0 miCalmClear
4:55 AM39.2 °F37.4 °F93 %29.97 in10.0 miCalmClear
5:15 AM39.2 °F37.4 °F93 %29.97 in10.0 miCalmClear
5:35 AM41.0 °F37.4 °F87 %29.97 in10.0 miCalmClear
5:55 AM39.2 °F37.4 °F93 %29.98 in10.0 miCalmClear
6:15 AM39.2 °F37.4 °F93 %29.98 in10.0 miCalmClear
6:35 AM39.2 °F37.4 °F93 %29.98 in9.0 miCalmClear
6:55 AM39.2 °F39.2 °F100 %29.98 in10.0 miCalmScattered Clouds
7:15 AM39.2 °F37.4 °F93 %29.98 in10.0 miCalmPartly Cloudy
7:35 AM39.2 °F39.2 °F100 %29.99 in7.0 miCalmPartly Cloudy
8:15 AM41.0 °F39.2 °F93 %29.99 in8.0 miCalmMostly Cloudy
8:35 AM42.8 °F41.0 °F93 %29.99 in7.0 miCalmPartly Cloudy
9:15 AM44.6 °F41.0 °F87 %30.00 in8.0 miCalmClear
9:35 AM44.6 °F41.0 °F87 %30.00 in9.0 miCalmClear
9:55 AM44.6 °F41.0 °F87 %30.01 in9.0 miNorth (10°)3.5 mphClear
10:15 AM44.6 °F41.0 °F87 %30.01 in9.0 miNorth (10°)3.5 mphClear
10:35 AM44.6 °F39.2 °F81 %30.01 in9.0 miNorth (360°)3.5 mphClear
10:55 AM46.4 °F39.2 °F76 %30.01 in8.0 miNorth (10°)4.6 mphClear
11:15 AM46.4 °F39.2 °F76 %30.01 in9.0 miCalmClear
11:35 AM46.4 °F39.2 °F76 %30.02 in8.0 miCalmClear
11:55 AM48.2 °F39.2 °F71 %30.02 in9.0 miCalmClear
12:15 PM48.2 °F39.2 °F71 %30.02 in9.0 miNorth (360°)3.5 mphClear
12:35 PM48.2 °F39.2 °F71 %30.02 in8.0 miNorth (360°)3.5 mphClear
12:55 PM48.2 °F41.0 °F76 %30.01 in9.0 miNNW (340°)5.8 mphClear
1:15 PM48.2 °F41.0 °F76 %30.01 in9.0 miNorth (360°)4.6 mphClear
1:35 PM48.2 °F42.8 °F82 %30.01 in8.0 miNNW (340°)5.8 mphClear
1:55 PM48.2 °F41.0 °F76 %30.01 in8.0 miNNW (340°)5.8 mphClear
2:15 PM48.2 °F39.2 °F71 %30.01 in10.0 miNorth (350°)4.6 mphClear
2:35 PM48.2 °F39.2 °F71 %30.01 in10.0 miNNW (340°)3.5 mphMostly Cloudy
2:55 PM50.0 °F39.2 °F66 %30.01 in10.0 miNNW (340°)5.8 mphScattered Clouds
3:15 PM48.2 °F37.4 °F66 %30.00 in10.0 miNorth (350°)4.6 mphClear
3:35 PM50.0 °F37.4 °F62 %30.00 in10.0 miCalmClear
3:55 PM50.0 °F37.4 °F62 %30.00 in10.0 miCalmClear
4:15 PM50.0 °F37.4 °F62 %29.99 in10.0 miCalmScattered Clouds
4:35 PM50.0 °F37.4 °F62 %29.99 in10.0 miCalmMostly Cloudy
4:55 PM50.0 °F37.4 °F62 %29.98 in10.0 miCalmOvercast
5:15 PM50.0 °F37.4 °F62 %29.98 in10.0 miCalmOvercast
5:35 PM50.0 °F37.4 °F62 %29.98 in10.0 miCalmOvercast
5:55 PM50.0 °F39.2 °F66 %29.98 in10.0 miCalmMostly Cloudy
6:15 PM50.0 °F37.4 °F62 %29.97 in10.0 miCalmPartly Cloudy
6:35 PM48.2 °F37.4 °F66 %29.97 in10.0 miCalmMostly Cloudy
7:15 PM48.2 °F37.4 °F66 %29.97 in10.0 miCalmClear
7:35 PM48.2 °F39.2 °F71 %29.97 in10.0 miCalmClear
7:55 PM46.4 °F39.2 °F76 %29.97 in9.0 miCalmScattered Clouds
8:15 PM44.6 °F39.2 °F81 %29.97 in10.0 miCalmPartly Cloudy
8:35 PM44.6 °F39.2 °F81 %29.97 in10.0 miCalmClear
8:55 PM44.6 °F39.2 °F81 %29.97 in10.0 miCalmClear
9:15 PM42.8 °F39.2 °F87 %29.97 in10.0 miCalmClear
9:35 PM42.8 °F39.2 °F87 %29.97 in7.0 miCalmClear
9:55 PM42.8 °F39.2 °F87 %29.97 in10.0 miCalmClear
10:15 PM41.0 °F37.4 °F87 %29.97 in10.0 miCalmClear
10:35 PM41.0 °F37.4 °F87 %29.97 in10.0 miCalmClear
10:55 PM41.0 °F37.4 °F87 %29.97 in10.0 miCalmClear
11:15 PM41.0 °F37.4 °F87 %29.97 in9.0 miCalmClear
11:35 PM41.0 °F37.4 °F87 %29.97 in10.0 miCalmClear
Hourly data recorded from CZBB, located miles away from Vancouver, British Columbia







STORIES FROM OUR PARTNERS